Regional Weather Roundup
Issued by NWS

Home | Current Version | Previous Version | Text Only | Print | Product List | Glossary Off
Versions: 1 2 3 4 5 6 7 8 9 10 11 12 13 14 15 16 17 18 19 20 21 22 23 24 25 26 27 28 29 30 31 32 33 34 35 36 37 38 39 40 41 42 43 44 45 46 47 48 49 50

000
ASUS45 KTFX 270010
RWRMT
MONTANA REGIONAL WEATHER ROUNDUP
NATIONAL WEATHER SERVICE GREAT FALLS MT
600 PM MDT WED APR 26 2017

NOTE: "FAIR" INDICATES FEW OR NO CLOUDS BELOW 12000 FEET WITH NO
SIGNIFICANT WEATHER AND/OR OBSTRUCTIONS TO VISIBILITY.

MTZ001>007-043-270100-
WEST OF THE DIVIDE

CITY           SKY/WX    TMP DP  RH WIND       PRES   REMARKS
KALISPELL      LGT RAIN  44  43  96 S8        29.64R
MISSOULA       CLOUDY    51  35  54 CALM      29.64F
BUTTE          CLOUDY    43  31  62 CALM      29.63F
MULLAN PASS    CLOUDY    31  30  96 VRB6      29.65S WCI  25
ANACONDA         N/A     46  30  53 N8        29.62S
DEER LODGE       N/A     46  36  66 CALM      29.64F
EUREKA           N/A     50  36  57 SE9       29.60F
HAMILTON         N/A     50  32  50 W13       29.62S
LIBBY            N/A     48  37  66 SE5       29.62S
PLAINS           N/A     50  36  58 W6        29.69
$$

MTZ008-052>055-270100-
SOUTHWEST MONTANA

CITY           SKY/WX    TMP DP  RH WIND       PRES   REMARKS
BOZEMAN        PTSUNNY   40  37  89 N14       29.65R
DILLON         CLOUDY    47  30  51 SW14      29.62F
W YELLOWSTONE  FLURRIES  34  32  93 S10       29.68F WCI  26
ENNIS          PTSUNNY   41  36  81 W12G18    29.70R
THREE FORKS      N/A     43  43 100 NE6       29.67F
TWIN BRIDGES     N/A     48  31  52 SE10      29.66
$$

MTZ009-010-012-014-046-048-049-054-270100-
EAST SLOPES AND CENTRAL MONTANA

CITY           SKY/WX    TMP DP  RH WIND       PRES   REMARKS
CUT BANK       LGT RAIN  46  34  62 CALM      29.59R
GREAT FALLS    CLOUDY    50  31  48 NW5       29.59R
MALMSTROM AFB  PTSUNNY   51  37  59 NE6       29.59R
HELENA         CLOUDY    47  39  74 SE6       29.61F
AUGUSTA          N/A     46  39  77 N7        29.59F
BOWMANS CRNR   PTSUNNY   44  34  67 N14       29.58R
CHOTEAU          N/A     43  39  87 W12G21    29.62R
FAIRFIELD      LGT RAIN  44  37  77 SW14G21   29.59S
POWER          LGT RAIN  44  38  81 S8        29.58R
RAYNESFORD     LGT RAIN  45  40  84 SE6       29.62R
ULM            LGT RAIN  45  40  82 SW15      29.60R
$$

MTZ011-013-016-021-045-047-050-051-270100-
NORTH CENTRAL MONTANA

CITY           SKY/WX    TMP DP  RH WIND       PRES   REMARKS
HAVRE          CLOUDY    48  40  73 CALM      29.62S
LEWISTOWN      PTSUNNY   46  36  68 VRB7      29.62S
N BAR RANCH    PTSUNNY   41  37  87 SE5       29.66F
CHINOOK          N/A     52  36  54 SE8       29.62S
DENTON         PTSUNNY   46  41  85 MISG      29.59S
FORT BENTON      N/A     55  37  50 N8        29.59F
GEYSER         LGT RAIN  43  40  88 E12       29.61S
GRASS RANGE    PTSUNNY   46  38  74 SE14      29.60S
JUDITH GAP     LGT RAIN  39  36  90 S12       29.64S WCI  31
STANFORD       LGT RAIN  41  40  95 E5        29.63R
WINIFRED         N/A     47  39  75 SE13      29.61F
$$

MTZ017>020-022>027-061-062-270100-
NORTHEAST MONTANA

CITY           SKY/WX    TMP DP  RH WIND       PRES   REMARKS
GLASGOW        SUNNY     50  26  39 S9G21     29.70F
JORDAN           N/A     49  31  49 SE10      29.68S
SIDNEY         SUNNY     50  22  33 E12       29.75F
WOLF POINT     SUNNY     53  26  35 E13G21    29.72F
MALTA          MOSUNNY   50  32  50 SE8G18    29.67S
PLENTYWOOD       N/A     46  21  36 E13       29.77F
POPLAR           N/A     48  23  37 E8        29.74F
SCOBEY           N/A     49  21  33 E12       29.75F
$$

MTZ028>42-056>058-270100-
SOUTHCENTRAL AND SOUTHEAST MONTANA

CITY           SKY/WX    TMP DP  RH WIND       PRES   REMARKS
BAKER          SUNNY     45  27  49 SE9       29.73F
BILLINGS       MOSUNNY   51  37  58 E7        29.62F
LIVINGSTON     CLOUDY    46  37  71 N9        29.62F
MILES CITY     MOSUNNY   48  30  49 SE6       29.70S
BIG TIMBER     PTSUNNY   41  37  87 NE10      29.66R
EKALAKA          N/A     44  28  53 NE5       29.72
LAUREL           N/A     52  36  54 NE3       29.65R
ROUNDUP          N/A     47  38  71 SW10      29.59R
$$

REGIONAL REPORTS...DAKOTAS

CITY           SKY/WX    TMP DP  RH WIND       PRES   REMARKS
WILLISTON      SUNNY     51  18  27 E8        29.77S
MINOT          SUNNY     49  24  37 NE14      29.77S
DICKINSON      SUNNY     45  20  36 NE15      29.72S
BEACH            N/A     46  23  39 E13       29.75F
TIOGA            N/A     46  16  29 E15       29.79S
WATFORD CITY     N/A     48  18  29 E9        29.76S
BISMARCK       CLOUDY    44  29  55 E13       29.76S
GRAND FORKS    LGT SNOW  32  30  92 N15       29.77S VSB 1   WCI  22
FARGO          LGT SNOW  30  28  92 N21       29.72S FOG     WCI  17
BUFFALO SD       N/A     46  26  45 NE6       29.66F
RAPID CITY     CLOUDY    40  29  64 N6        29.73F
$$

REGIONAL REPORTS...WYOMING/IDAHO/WASHINGTON

CITY           SKY/WX    TMP DP  RH WIND       PRES   REMARKS
GILLETTE       SUNNY     43  35  73 NE7       29.67F
SHERIDAN       CLOUDY    35  29  78 S7        29.69S WCI  29
BUFFALO WY     CLOUDY    39  31  72 CALM      29.68S
CODY           CLOUDY    50  37  61 SE14      29.62S
YELLOWSTONE LA   N/A     30  29  96 CALM      29.71F
IDAHO FALLS    CLOUDY    42  39  89 S20       29.70F
SALMON         CLOUDY    46  37  71 SW8       29.65F
BOISE          PTSUNNY   53  42  66 MISG      29.71F
SPOKANE        CLOUDY    52  39  61 SW20G36   29.66R
$$

REGIONAL REPORTS...ALBERTA

CITY           SKY/WX    TMP DP  RH WIND       PRES   REMARKS
EDMONTON       CLOUDY    36  28  75 SE7       29.74R WCI  30
CALGARY        CLOUDY    37  32  81 SE8       29.64S WCI  31
LETHBRIDGE     PTSUNNY   46  37  71 E13       29.59F
MEDICINE HAT   CLOUDY    45  39  81 N8        29.64F
CARDSTON         N/A     46  36  66 NE6         N/A
MILK RIVER       N/A     46  39  76 E12         N/A
ONEFOUR          N/A     48  36  61 E8          N/A
$$

REGIONAL REPORTS...SASKATCHEWAN

CITY           SKY/WX    TMP DP  RH WIND       PRES   REMARKS
SWIFT CURRENT  CLOUDY    46  28  49 SE17G25   29.68F
REGINA         MOSUNNY   45  19  36 E16       29.81F
SASKATOON      CLOUDY    43  16  33 E14G20    29.85S
CYPRESS HILLS    N/A     43  32  65 S7          N/A
VAL MARIE        N/A     48  27  43 SE12        N/A
ROCKGLEN         N/A     46  23  39 SE12        N/A
ASSINIBOIA       N/A     36  34  93 E7          N/A  WCI  30
$$



USA.gov is the U.S. government's official web portal to all federal, state and local government web resources and services.